Volver al catálogo

SL-8 DEB

ActivoLEO
NORAD 27743·DEBRIS·🇷🇺 Russia

Lanzado Feb 12, 1991 desde Plesetsk Cosmodrome

Loading…

Próximos Pases (próximas 24 horas)

TLE

ActualizadoSource: Space-Track

Época: Sep 14, 2026, 00:35 UTC

1 27743U 91009CY  26257.02458693 -.00000068  00000-0 -50978-3 0  9999
2 27743  74.0604 110.0207 0134936 140.3818  10.9456 12.20341548265422

Sigue SL-8 DEB en tiempo real con AllMySat

Download on the App Store